Regional Weather Roundup
Issued by NWS Raleigh/Durham, NC

Current Version | Previous Version | Text Only | Print | Product List | Glossary On
Versions: 1 2 3 4 5 6 7 8 9 10 11 12 13 14 15 16 17 18 19 20 21 22 23 24 25 26 27 28 29 30 31 32 33 34 35 36 37 38 39 40 41 42 43 44 45 46 47 48 49 50
000 ASUS42 KRAH 241010 RWRRAH NORTH CAROLINA WEATHER ROUNDUP NATIONAL WEATHER SERVICE RALEIGH NC 600 AM EDT THU JUL 24 2014 NOTE: "FAIR" INDICATES FEW OR NO CLOUDS BELOW 12,000 FEET WITH NO SIGNIFICANT WEATHER AND/OR OBSTRUCTIONS TO VISIBILITY. NCZ001-053-055-056-065-067-241100- WESTERN NORTH CAROLINA CITY SKY/WX TMP DP RH WIND PRES REMARKS ASHEVILLE CLOUDY 68 66 93 CALM 30.02S JEFFERSON LGT RAIN 67 60 79 CALM 30.04R MORGANTON MOCLDY 68 68 100 CALM 29.99S HICKORY MOCLDY 71 69 93 W3 29.93S RUTHERFORDTON MOCLDY 69 69 98 CALM 29.95S MOUNT AIRY LGT RAIN 72 69 89 CALM 29.93R BOONE CLOUDY 66 63 91 W5 30.05R $$ NCZ021-022-025-041-071-084-088-241100- CENTRAL NORTH CAROLINA CITY SKY/WX TMP DP RH WIND PRES REMARKS CHARLOTTE MOCLDY 72 69 90 CALM 29.92S GREENSBORO MOCLDY 72 70 93 S5 29.91S WINSTON-SALEM MOCLDY 74 69 85 W3 29.93S RALEIGH-DURHAM PTCLDY 75 71 87 SW8 29.89S FORT BRAGG MOCLDY 76 74 93 SW7 29.90S FAYETTEVILLE PTCLDY 76 74 93 SW7 29.90S BURLINGTON CLOUDY 74 69 85 SW3 29.91R LAURINBURG CLEAR 75 73 93 SW6 29.92R $$ NCZ011-015-027-028-043-044-047-080-103-241100- NORTHEASTERN NORTH CAROLINA CITY SKY/WX TMP DP RH WIND PRES REMARKS ROCKY MT-WILSO PTCLDY 76 74 93 SW7 29.88S GREENVILLE PTCLDY 77 73 88 SW6 29.91R FOG WASHINGTON CLEAR 75 73 93 SW5 29.89S ELIZABETH CITY PTCLDY 76 74 93 SW9 29.86S MANTEO NOT AVBL CAPE HATTERAS MOCLDY 79 77 94 W8 29.90S $$ NCZ078-087-090-091-093-098-101-241100- SOUTHEASTERN NORTH CAROLINA CITY SKY/WX TMP DP RH WIND PRES REMARKS LUMBERTON CLEAR 76 74 93 SW6 29.91S GOLDSBORO PTCLDY 76 76 99 SW8 29.88S KINSTON CLEAR 76 74 94 SW7 29.91R KENANSVILLE CLEAR 74 73 93 CALM 29.92S NEW BERN PTCLDY 77 73 87 SW5 29.92R CHERRY POINT PTCLDY 76 73 91 SW6 29.92S BEAUFORT MOCLDY 81 76 84 W15 29.91S JACKSONVILLE CLEAR 76 74 93 SW8 29.91S WILMINGTON MOCLDY 78 76 93 SW8 29.93S $$

USA.gov is the U.S. government's official web portal to all federal, state and local government web resources and services.